Location: Dreilärchen
(47.9312°N, 8.6113°E)
Time: 21:52:49
(UTC+00:00)

Cosmos 1378 Rocket - Pass Details

Date: 26 May 2022
Orbit: 600 x 627 km, 82.5° (Epoch: 04 July)

Event Time Altitude Azimuth Distance (km) Brightness Sun altitude
Exits shadow 00:22:24 40° 234° (SW) 917 4.0 -19.7°
Maximum altitude 00:23:35 53° 283° (WNW) 768 3.9 -19.6°
Drops below altitude 10° 00:27:57 10° 1° (N) 2,012 7.3 -19.4°
Sets 00:30:16 0° 6° (N) 2,926 8.6 -19.3°
